Victoria, TX

11:12 PM CST on December 13, 2019 (GMT -0600)
Victoria Regional

Weather History for KVCT - October, 2019

Change the Weather History Date:

Monday, October 7, 2019

  Actual Average Record
Temperature  
Mean Temperature 80 °F 74 °F  
Max Temperature 91 °F 86 °F 99 °F (1925)
Min Temperature 68 °F 63 °F 47 °F (1952)
Degree Days  
Heating Degree Days 0 0  
Month to date heating degree days 0 0  
Since 1 July heating degree days 0 1  
Cooling Degree Days 14 10  
Month to date cooling degree days 119 73  
Year to date cooling degree days 3384 2871  
Growing Degree Days 30 (Base 50)    
Moisture  
Dew Point 66 °F    
Average Humidity 74    
Maximum Humidity 97    
Minimum Humidity 43    
Precipitation  
Precipitation 0.00 in 0.14 in 1.87 in (1997)
Month to date precipitation 0.04 1.00  
Year to date precipitation 19.40 32.03  
Snow  
Snow 0.00 in 0.00 in 0.00 in (2002)
Month to date snowfall 0.0 0.0  
Since 1 July snowfall 0.0 0.0  
Since 1 September snowfall 0.0 0.0  
Snow Depth 0.00 in    
Sea Level Pressure  
Sea Level Pressure 30.02 in    
Wind  
Wind Speed 7 mph ()    
Max Wind Speed 18 mph    
Max Gust Speed 29 mph    
Visibility 8.9 miles    
Events      
T = Trace of Precipitation, MM = Missing Value Source: Averaged Metar Reports

Daily Weather History Graph

Daily Weather History Graph

Search for Another Location

Airport or City:

Astronomy

Oct. 07, 2019 Rise Set
Actual Time 7:23 AM CDT 7:06 PM CDT
Civil Twilight 7:00 AM CDT 7:30 PM CDT
Nautical Twilight 6:32 AM CDT 7:57 PM CDT
Astronomical Twilight 6:05 AM CDT 8:25 PM CDT
Moon 3:57 PM CDT (10/7) 1:52 AM CDT (10/7)
Length of Visible Light 12h 30m
Length of Day
11h 42m
Waxing Gibbous, 69% of the Moon is Illuminated
Oct 7
Waxing Gibbous
Oct 13
Full
Oct 21
Last Quarter
Oct 27
New
Nov 4
First Quarter

Hourly Weather History & Observations

Time (CDT) Temp. Heat Index Dew Point Humidity Pressure Visibility Wind Dir Wind Speed Gust Speed Precip Events Conditions
12:51 AM 72.0 °F - 69.1 °F 91% 29.97 in 8.0 mi NNE 3.5 mph - N/A   Clear
1:51 AM 70.0 °F - 68.0 °F 93% 29.98 in 8.0 mi North 3.5 mph - N/A   Clear
2:51 AM 68.0 °F - 66.0 °F 93% 29.99 in 7.0 mi NNW 5.8 mph - N/A   Clear
3:48 AM 69.8 °F - 68.0 °F 94% 29.99 in 6.0 mi NNW 5.8 mph - N/A   Mostly Cloudy
3:51 AM 70.0 °F - 68.0 °F 93% 29.99 in 6.0 mi NNW 6.9 mph - N/A   Mostly Cloudy
4:13 AM 70.0 °F - 68.0 °F 93% 29.99 in 6.0 mi North 5.8 mph - N/A   Scattered Clouds
4:51 AM 69.1 °F - 66.9 °F 93% 29.99 in 6.0 mi NNW 5.8 mph - N/A   Clear
5:51 AM 68.0 °F - 66.0 °F 93% 30.00 in 6.0 mi North 4.6 mph - N/A   Clear
6:51 AM 69.1 °F - 66.9 °F 93% 30.01 in 8.0 mi NNW 4.6 mph - N/A   Partly Cloudy
7:51 AM 70.0 °F - 68.0 °F 93% 30.02 in 8.0 mi NNW 5.8 mph - N/A   Partly Cloudy
8:30 AM 73.0 °F - 70.0 °F 90% 30.04 in 10.0 mi North 10.4 mph - N/A   Mostly Cloudy
8:38 AM 73.9 °F - 70.0 °F 87% 30.04 in 10.0 mi North 10.4 mph - N/A   Scattered Clouds
8:51 AM 73.9 °F - 70.0 °F 87% 30.04 in 10.0 mi North 13.8 mph - N/A   Partly Cloudy
9:51 AM 78.1 °F - 66.9 °F 68% 30.06 in 10.0 mi North 13.8 mph 28.8 mph N/A   Partly Cloudy
10:51 AM 82.0 °F 84.5 °F 66.9 °F 60% 30.06 in 10.0 mi NNW 13.8 mph - N/A   Clear
11:51 AM 82.9 °F 85.0 °F 66.0 °F 56% 30.06 in 10.0 mi North 11.5 mph 20.7 mph N/A   Clear
12:51 PM 84.9 °F 86.6 °F 64.9 °F 51% 30.05 in 10.0 mi NNW 9.2 mph - N/A   Clear
1:51 PM 84.9 °F 86.6 °F 64.9 °F 51% 30.04 in 10.0 mi North 12.7 mph - N/A   Clear
2:51 PM 89.1 °F 91.0 °F 64.9 °F 45% 30.00 in 10.0 mi North 16.1 mph - N/A   Clear
3:51 PM 90.0 °F 91.7 °F 64.9 °F 43% 29.99 in 10.0 mi NNE 11.5 mph 17.3 mph N/A   Clear
4:51 PM 89.1 °F 90.3 °F 64.0 °F 43% 29.98 in 10.0 mi North 12.7 mph - N/A   Clear
5:51 PM 86.0 °F 86.8 °F 63.0 °F 46% 29.98 in 10.0 mi North 13.8 mph - N/A   Clear
6:51 PM 82.0 °F 83.0 °F 62.1 °F 51% 30.01 in 10.0 mi NNE 11.5 mph - N/A   Clear
7:51 PM 78.1 °F - 62.1 °F 58% 30.02 in 10.0 mi North 10.4 mph - N/A   Clear
8:51 PM 73.9 °F - 63.0 °F 68% 30.05 in 10.0 mi North 6.9 mph - N/A   Clear
9:51 PM 72.0 °F - 63.0 °F 73% 30.06 in 10.0 mi North 8.1 mph - N/A   Clear
10:51 PM 71.1 °F - 63.0 °F 75% 30.06 in 10.0 mi North 6.9 mph - N/A   Clear
11:51 PM 69.1 °F - 63.0 °F 81% 30.06 in 10.0 mi North 6.9 mph - N/A   Clear